Powrót do katalogu

YUNHAI 1

AktywnyNaukaSSO
NORAD 41857·PAYLOAD·🇨🇳 China

Wystrzelony Nov 11, 2016 z Jiuquan Satellite Launch Center

Loading…

Następne Przeloty (najbliższe 24 godziny)

TLE

ŚwieżeSource: Space-Track

Epoka: Sep 14, 2026, 23:34 UTC

1 41857U 16068A   26257.98219398  .00000292  00000-0  12381-3 0  9998
2 41857  98.5864 268.1676 0003956 115.1525 245.0069 14.32514518514680

Śledź YUNHAI 1 w czasie rzeczywistym z AllMySat

Download on the App Store